Location: Praha
(50.0830°N, 14.4670°E)
Time: 22:57:27
(UTC+01:00)

ISS - Pass Details

Date: 03 March 2019
Orbit: 415 x 423 km, 51.6° (Epoch: 19 February)

Event Time Altitude Azimuth Distance (km) Brightness Sun altitude
Exits shadow 04:41:36 87° 32° (NNE) 422 -3.9 -20.1°
Drops below altitude 10° 04:44:56 10° 75° (ENE) 1,495 0.3 -19.6°
Sets 04:47:02 0° 75° (ENE) 2,362 1.7 -19.2°
